Flight Track Log - Related Links

Times and Time Zones

All times are in EDT time to prevent confusion due to time zone crossing. See the UCA3597 flight status page for this flight to view local times or setup timezone preferences in your user account.

Time Position Orientation Groundspeed Altitude Reporting Facility
EDT Latitude Longitude Course Direction KTS MPH feet Rate Location/Type
Wed 05:40:00 PM 39.3047 -77.3050 19° North  Level Estimated
Wed 05:41:00 PM 39.3643 -77.2790 19° North  Level Estimated
Wed 05:42:00 PM 39.4238 -77.2530 19° North  Level Estimated
Wed 05:43:00 PM 39.4833 -77.2269 19° North  Level Estimated
Wed 05:44:00 PM 39.5428 -77.2008 19° North  Level Estimated
Wed 05:45:00 PM 39.6023 -77.1747 19° North  Level Estimated
Wed 05:46:00 PM 39.6618 -77.1485 19° North  Level Estimated
Wed 05:47:00 PM 39.7213 -77.1222 19° North  Level Estimated
Wed 05:48:00 PM 39.7808 -77.0959 19° North  Level Estimated
Wed 05:49:00 PM 39.8402 -77.0696 19° North  Level Estimated
Wed 05:50:00 PM 39.8997 -77.0432 19° North  Level Estimated
Wed 05:51:00 PM 39.9592 -77.0168 19° North  Level Estimated
Wed 05:52:00 PM 40.0186 -76.9903 19° North  Level Estimated
Wed 05:53:00 PM 40.0781 -76.9638 19° North  Level Estimated
Wed 05:54:00 PM 40.1375 -76.9372 19° North  Level Estimated
Wed 05:55:00 PM 40.1970 -76.9106 19° North  Level Estimated
Wed 05:56:00 PM 40.2564 -76.8840 19° North  Level Estimated
Wed 05:57:00 PM 40.3158 -76.8572 19° North  Level Estimated
Wed 05:58:00 PM 40.3753 -76.8305 19° North  Level Estimated
Wed 05:59:00 PM 40.4347 -76.8037 19° North  Level Estimated
Wed 06:00:00 PM 40.4941 -76.7768 19° North  Level Estimated
Wed 06:01:00 PM 40.5535 -76.7500 19° North  Level Estimated
Wed 06:02:00 PM 40.6129 -76.7230 19° North  Level Estimated
Wed 06:03:00 PM 40.6723 -76.6960 19° North  Level Estimated
Wed 06:04:00 PM 40.7317 -76.6690 19° North  Level Estimated
Wed 06:05:00 PM 40.7911 -76.6419 19° North  Level Estimated
Wed 06:06:00 PM 40.8504 -76.6148 19° North  Level Estimated
Wed 06:07:00 PM 40.9098 -76.5876 19° North  Level Estimated
Wed 06:08:00 PM 40.9692 -76.5603 19° North  Level Estimated
Wed 06:09:00 PM 41.0285 -76.5331 19° North  Level Estimated
Wed 06:10:00 PM 41.0879 -76.5057 19° North  Level Estimated
Wed 06:11:00 PM 41.1472 -76.4784 19° North  Level Estimated
Wed 06:12:00 PM 41.2066 -76.4509 19° North  Level Estimated
Wed 06:13:00 PM 41.2659 -76.4234 19° North  Level Estimated
Wed 06:14:00 PM 41.3252 -76.3959 19° North  Level Estimated
Wed 06:15:00 PM 41.3845 -76.3683 19° North  Level Estimated
Wed 06:16:00 PM 41.4438 -76.3407 19° North  Level Estimated
Wed 06:17:00 PM 41.5031 -76.3130 19° North  Level Estimated
Wed 06:18:00 PM 41.5624 -76.2853 19° North  Level Estimated
Wed 06:19:00 PM 41.6217 -76.2575 19° North  Level Estimated
Wed 06:20:00 PM 41.6810 -76.2297 19° North  Level Estimated
Wed 06:21:00 PM 41.7403 -76.2018 19° North  Level Estimated
Wed 06:22:00 PM 41.7996 -76.1739 19° North  Level Estimated
Wed 06:23:00 PM 41.8588 -76.1459 19° North  Level Estimated
Wed 06:24:00 PM 41.9181 -76.1178 19° North  Level Estimated
Wed 06:25:00 PM 41.9773 -76.0897 19° North  Level Estimated
Wed 06:26:00 PM 42.0366 -76.0616 19° North  Level Estimated
Wed 06:27:00 PM 42.0958 -76.0334 19° North  Level Estimated
Wed 06:28:00 PM 42.1550 -76.0051 19° North  Level Estimated
Wed 06:29:00 PM 42.2084 -75.9796 19° North  Level Estimated
Wed 06:30:00 PM 42.2084 -75.9796 35° Northeast  Level Estimated
Wed 06:31:00 PM 42.2084 -75.9796 35° Northeast  Level Estimated
Wed 06:32:00 PM 42.2084 -75.9796 35° Northeast  Level Estimated
Wed 06:33:00 PM 42.2084 -75.9796 35° Northeast  Level Estimated
Wed 06:34:00 PM 42.2084 -75.9796 35° Northeast  Level Estimated
Wed 06:35:00 PM 42.2084 -75.9796 35° Northeast  Level Estimated
Wed 06:36:00 PM 42.2084 -75.9796 35° Northeast  Level Estimated
Wed 06:37:00 PM 42.2084 -75.9796 35° Northeast  Level Estimated
Wed 06:38:00 PM 42.2084 -75.9796 35° Northeast  Level Estimated
Wed 06:39:00 PM 42.2084 -75.9796 35° Northeast  Level Estimated
Wed 06:40:00 PM 42.2084 -75.9796 35° Northeast  Level Estimated
Wed 06:41:00 PM 42.2084 -75.9796 35° Northeast  Level Estimated
Wed 06:42:00 PM 42.2084 -75.9796 35° Northeast  Level Estimated
Wed 06:43:00 PM 42.2084 -75.9796 35° Northeast  Level Estimated
Wed 06:44:00 PM 42.2084 -75.9796 35° Northeast  Level Estimated
Wed 06:45:00 PM 42.2084 -75.9796 35° Northeast  Level Estimated

Login

Don't have an account? Register now (free) for customized features, flight alerts, and more!